一网星座-0214星 (ONEWEB-0214 )

导读 | 星芒AI

ONEWEB-0214 是 OneWeb 卫星通信公司发射的低轨通信卫星之一,属于其全球宽带互联网星座计划的一部分。该卫星运行在约 1200 公里的近地轨道,旨在为全球偏远地区提供高速互联网接入。ONEWEB-0214 采用先进通信技术,具备高带宽和低延迟特性,支持航空、航海及陆地用户的连接需求。其发射进一步完善了 OneWeb 的卫星网络布局,助力实现全球数字包容性目标。

基本信息
目录编号:
48788
目录名称:
ONEWEB-0214
国际标识:
2021-045X
轨道中心:
EARTH
卫星名称:
一网星座-0214星
卫星全名:
一网星座-0214星 (ONEWEB-0214 )
卫星状态:
在轨 (已飞行1662 天)
发射日期:
2021-05-28 UTC
国别 :
英国 (GB)
星等 :
--
轨道信息
数据来源 国际轨道数据 AOE轨道数据
星历时间 2025-12-15T04:58:23+0800
22小时前
查看轨道信息
2025-12-13T14:00:00+0800
2天前
查看轨道信息
半长轴 7579.913km 7579.902km
偏心率 0.0002264 0.0002329
轨道倾角 87.901° 87.900°
近地点辐角 80.814° 86.999°
升交点赤经 295.944° 296.268°
平近点角 279.325° 146.897°
近地点 1200.061km 1200.001km
远地点 1203.495km 1203.533km
周期 109.460分钟 109.460分钟
每日圈数 13.155473 13.155503
详细信息
平衡模式:
三轴稳定
覆盖范围:
全球
运营商:
一网卫星公司
运营商所在国:
英国
制造商(研发单位):
一网卫星公司
制造商所在国:
英国
使用方式:
暂无
卫星简介
OneWeb卫星网络由648颗重约125公斤的微型卫星组成,运行在1200公里的轨道上。 每颗卫星都能够提供至少每秒8千兆位的吞吐量,以使用其高吞吐量的Ku频段有效载荷为家庭和移动平台提供互联网接入。该卫星仍在工作。
2D轨道图
3D轨道图
轨道高度分析图
轨道倾角分析图
轨道综合分析图
查看轨道综合分析图